Location: Peebles
(55.6412°N, 3.1714°W)
Time: 09:17:28
(UTC+01:00)

Cosmos 2263 Rocket - Pass Details

Date: 26 September 2021
Orbit: 825 x 847 km, 71.0° (Epoch: 21 October)

Event Time Altitude Azimuth Distance (km) Brightness Sun altitude
Rises 22:06:49 0° 322° (NW) 3,398 6.6 -25.3°
Reaches altitude 10° 22:09:34 10° 333° (NNW) 2,457 5.5 -25.6°
Maximum altitude 22:14:32 31° 35° (NE) 1,428 3.4 -26.1°
Enters shadow 22:15:24 30° 52° (NE) 1,469 3.3 -26.2°
